Regional Weather Roundup
Issued by NWS Newport/Morehead, NC

Current Version | Previous Version | Graphics & Text | Print | Product List | Glossary Off
Versions: 1 2 3 4 5 6 7 8 9 10 11 12 13 14 15 16 17 18 19 20 21 22 23 24 25 26 27 28 29 30 31 32 33 34 35 36 37 38 39 40 41 42 43 44 45 46 47 48 49 50

000
ASUS42 KMHX 120022
RWRMHX
WEATHER ROUNDUP FOR EASTERN NORTH CAROLINA
NATIONAL WEATHER SERVICE NEWPORT/MOREHEAD CITY NC
800 PM EDT FRI JUL 11 2014

NOTE: "FAIR" INDICATES FEW OR NO CLOUDS BELOW 12,000 FEET
WITH NO SIGNIFICANT WEATHER AND/OR OBSTRUCTIONS TO VISIBILITY

NCZ015>017-031-032-045>047-102-103-120100-
NORTH COAST

CITY           SKY/WX    TMP DP  RH WIND       PRES   REMARKS
EDENTON        CLOUDY    77  73  85 E7        30.17R
ELIZABETH CITY CLOUDY    76  69  79 NE7       30.18R
KITTY HAWK     CLOUDY    74  71  89 NE3       30.17R
MANTEO         NOT AVBL

$$

NCZ045>047-081-094-103-104-120100-
CENTRAL COAST

CITY           SKY/WX    TMP DP  RH WIND       PRES   REMARKS
FRISCO         MOCLDY    79  72  79 W5        30.16R
SWANQUARTER      N/A     79 N/A N/A E3        30.15R

$$

NCZ095-097-098-100-101-120100-
SOUTHERN COAST

CITY           SKY/WX    TMP DP  RH WIND       PRES   REMARKS
BEAUFORT       CLOUDY    80  72  76 W5        30.16R
CEDAR ISLAND     N/A     79 N/A N/A W2        30.21R
JACKSONVILLE   CLOUDY    78  70  76 SW5       30.16R
NEWPORT        NOT AVBL
PINEY ISLAND   CLOUDY    79  75  87 SW3       30.16R
WILMINGTON     CLOUDY    79  74  84 SE3       30.17R


$$

NCZ011>013-027>030-043-044-078>080-089-090>093-098-120100-
COASTAL PLAIN

CITY           SKY/WX    TMP DP  RH WIND       PRES   REMARKS
AHOSKIE        PTCLDY    75  71  85 CALM      30.18R
CLINTON        PTCLDY    80  74  82 CALM      30.17S
ELIZABETHTOWN  MOCLDY    80  72  75 CALM      30.17R
GOLDSBORO      MOCLDY    79  75  89 NE3       30.15S
GREENVILLE     CLOUDY    79  72  78 N3        30.18S HAZE
HAVELOCK       CLOUDY    77  71  82 W3        30.17R
KENANSVILLE    MOCLDY    78  71  78 CALM      30.18R
KINSTON        CLOUDY    79  72  78 N3        30.17S
NEW BERN       CLOUDY    81  73  78 CALM      30.17S
RICHLANDS      CLOUDY    79  72  78 CALM      30.17R
ROANOKE RAPIDS NOT AVBL
ROCKY MOUNT    PTCLDY    78  71  79 CALM      30.17S
WASHINGTON     CLOUDY   N/A N/A N/A CALM      30.17S
WHITEVILLE     MOCLDY    80  73  79 CALM      30.16R

$$

AMZ130-135-150-152-154-156-158-170-250-252-270-ANZ085-086-088-633-658-670-120100-
MARINE OBSERVATIONS

STATION/POSITION TIME  TEMP    WIND        PRES    WAVE   SWELL
                       AIR SEA DIR/SP/G            HT/PER HT/PER
                 (UTC) (F)     (DEG/KT/KT) (MB)    (FT/S) (FT/S)
CHESAPEAKE LIGHT NOT AVBL
BUOY 44014       0000   74 76  360/  6/  6 1020.9    2/ 6   2/ 6
DUCK             0000   74 62   50/  9/  9 1021.1
2E DUCK          0000                        N/A     2/ 6
OREGON INLET     0000   75 82   20/  7/  9 1021.6
BUOY 44095       0000      74                N/A     2/ 6
HATTERAS CG      0000   79 83  230/  5/  7 1021.6
DIAMOND BUOY     0000          VRB  8/  8  1021.0    2/ 6   2/ 6
17S OCRACOKE INL NOT AVBL
CAPE LOOKOUT     0000   78     230/  5/  5 1021.1
BEAUFORT LAB     0000   80 82  270/  2/  4 1020.8
30 SE NEW RIVER  0000   79 82  240/  4/  6 1021.4    2/ 5   2/ 5
5 SE WRIGHTSVILL 0000   75 81  210/  2/  4 1022.0
FRYING PAN BUOY  NOT AVBL
BUOY 41001       NOT AVBL
BUOY 41002       NOT AVBL
BUOY 41004       0000   80 83  120/  6/  8 1020.4    2/ 8   2/ 8

$$


USA.gov is the U.S. government's official web portal to all federal, state and local government web resources and services.